[[{"header":{"parameterUnit":"m.s-1","parameterCategory":1,"la1":30.2991,"la2":30.254,"lo1":-89.0895,"lo2":-89.0444,"dy":0.0017,"dx":0.0017,"nx":28,"ny":28,"refTime":"2023-05-28T21:00:00:Z","depth":0,"parameterNumber":2,"parameterNumberName":"U-component_of_WINDS"},"data":[0,0,0,0,0,0,0,0,0,0,0,0,0,0,0,0,0,0,0,0,0,0,0,0,0,0,0,0,0,0,0,0,0,0,0,0,0,0,0,0,0,0,0,0,0,0,0,0,0,0,0,0,0,0,0,0,0,0,1.3645,1.3647,0,1.3782,1.3784,1.3785,1.3792,1.3791,1.3789,1.3787,1.3931,1.3936,1.3941,0,0,0,0,0,0,0,0,0,0,0,0,0,1.3391,1.3396,1.3645,1.3647,1.3649,1.3782,1.3784,1.3786,1.3792,1.3791,1.3789,1.3787,1.3929,1.3935,1.3942,0,0,0,0,0,0,0,0,0,0,0,0,0,1.3512,1.3398,1.3645,1.3668,1.3671,1.3782,1.3784,1.3786,1.3793,1.379,1.3788,1.3786,1.3927,1.3935,1.3943,1.404,0,0,1.3967,1.397,0,0,0,0,0,0,0,0,1.3506,1.3522,1.3663,1.3667,1.3671,1.3768,1.3747,1.3871,1.3793,1.3747,1.3787,1.3785,1.3879,1.389,1.3922,1.4047,1.4053,1.3968,1.3973,1.3976,1.3978,0,0,0,0,0,0,0,1.3497,1.3516,1.37,1.3665,1.367,1.3672,1.3687,1.3771,1.3825,1.3751,1.3752,1.3768,1.388,1.3914,1.3925,1.4055,1.3967,1.3975,1.3979,1.3983,1.4266,1.4268,0,0,0,0,0,0,1.3484,1.3509,1.3695,1.3704,1.358,1.3679,1.3695,1.3739,1.3824,1.3834,1.3769,1.3767,1.3901,1.3916,1.393,1.4049,1.3976,1.3983,1.3988,1.4263,1.4266,1.4269,0,0,0,0,0,0,1.3478,1.3501,1.369,1.3607,1.3631,1.3686,1.3735,1.3743,1.3776,1.3838,1.3848,1.3794,1.39,1.3919,1.4012,1.4054,1.3987,1.3994,1.426,1.4264,1.4268,1.4287,0,0,0,0,0,0,1.3471,1.3499,1.3536,1.3607,1.3635,1.3769,1.3738,1.3747,1.379,1.3788,1.3863,1.3873,1.39,1.4,1.402,1.4064,1.4,1.4256,1.4262,1.4266,1.4283,1.4292,1.4299,0,0,0,0,0,1.3462,1.3537,1.3538,1.356,1.3683,1.3771,1.3787,1.3815,1.3793,1.3831,1.387,1.3871,1.4046,1.401,1.4032,1.4079,1.4254,1.426,1.4266,1.428,1.429,1.4299,0,0,0,0,0,0,1.3471,1.3547,1.3548,1.3648,1.3703,1.3772,1.3821,1.3825,1.3889,1.3885,1.3917,1.3934,1.4026,1.4062,1.402,1.4177,1.4147,1.4158,1.415,1.416,1.4168,1.4158,1.4007,0,0,0,0,0,1.3484,1.3548,1.3612,1.3694,1.3721,1.3766,1.3806,1.3823,1.3881,1.3905,1.3951,1.4008,1.4076,1.412,1.4186,1.4288,1.4304,1.4331,1.4339,1.4345,1.4354,1.441,1.4422,1.4289,1.4289,1.4289,0,0,1.3512,1.3562,1.3601,1.3697,1.3741,1.3808,1.3786,1.3858,1.3908,1.3916,1.4006,1.4042,1.4108,1.4206,1.4251,1.4238,1.4394,1.4353,1.4357,1.4363,1.4417,1.443,1.4441,1.4294,1.4293,1.4292,0,0,1.3598,1.3642,1.3715,1.3759,1.3826,1.3855,1.3872,1.3941,1.3964,1.4055,1.4062,1.4122,1.4239,1.4285,1.4324,1.4426,1.4428,1.4446,1.4487,1.4541,1.4551,1.4561,1.4597,1.4609,1.4455,1.4455,1.4455,0,1.3626,1.3726,1.3752,1.3823,1.3865,1.3874,1.3947,1.399,1.4075,1.4104,1.4088,1.4233,1.4278,1.4386,1.4411,1.4442,1.4463,1.4438,1.4548,1.4557,1.4567,1.4601,1.4614,1.4457,1.4457,1.4457,1.4456,0,1.3756,1.3825,1.3875,1.3956,1.4003,1.4075,1.4113,1.4158,1.417,1.4201,1.4293,1.4347,1.4424,1.4451,1.4464,1.4561,1.455,1.4541,1.4512,1.458,1.4613,1.4627,1.4459,1.4459,1.4458,1.4458,0,0,1.3852,1.3944,1.3963,1.3998,1.4072,1.4126,1.4198,1.4272,1.4309,1.4368,1.4429,1.4526,1.4517,1.4561,1.458,1.4627,1.4703,1.4612,1.4614,1.4626,1.4812,1.4818,1.4833,1.4705,1.4707,1.471,1.4806,0,1.3946,1.4074,1.4099,1.421,1.4273,1.4282,1.4345,1.4397,1.4427,1.4486,1.452,1.4588,1.4572,1.4598,1.4645,1.4684,1.4741,1.4677,1.4763,1.4765,1.4746,1.4851,1.4858,1.4947,1.4819,1.4821,1.4823,0,1.4073,1.4132,1.4249,1.4312,1.434,1.4396,1.4464,1.452,1.4579,1.4598,1.4646,1.4659,1.4734,1.4701,1.4806,1.4762,1.4799,1.4823,1.4827,1.4836,1.4798,1.4862,1.4976,1.4989,1.4844,1.4842,1.4841,0,1.4131,1.424,1.4323,1.4354,1.443,1.4469,1.4503,1.4559,1.4601,1.4661,1.4688,1.4757,1.4795,1.4848,1.4878,1.4852,1.4981,1.4951,1.4999,1.4998,1.5026,1.5024,1.5147,1.5049,1.5049,1.5049,1.5049,0,1.4233,1.4304,1.435,1.4402,1.4481,1.4509,1.4588,1.4621,1.4671,1.4729,1.4741,1.4796,1.4833,1.4893,1.4918,1.5,1.5018,1.5035,1.5041,1.5034,1.5032,1.5059,1.5053,1.5053,1.5052,1.5051,1.505,0,1.4312,1.4345,1.4437,1.45,1.4518,1.4574,1.4628,1.4679,1.4708,1.4782,1.4801,1.4848,1.4919,1.4955,1.5044,1.5061,1.5154,1.5156,1.5133,1.5136,1.5182,1.5177,1.5326,1.5347,1.5236,1.5237,1.5238,0,1.4375,1.4429,1.4497,1.4536,1.457,1.4634,1.4676,1.4705,1.4749,1.4819,1.4861,1.4932,1.499,1.5104,1.5147,1.5215,1.5218,1.5266,1.5229,1.522,1.5219,1.5215,1.522,1.5273,1.5274,1.5275,1.5275,0,1.4483,1.4496,1.4556,1.4621,1.467,1.4723,1.4776,1.4807,1.4845,1.4893,1.4965,1.501,1.51,1.5171,1.5241,1.5277,1.5283,1.5286,1.5301,1.5295,1.5279,1.5288,1.5151,1.5283,1.5282,1.5282,1.5281,1.5281,1.4556,1.4604,1.4659,1.4724,1.4766,1.4814,1.4864,1.4899,1.4959,1.5033,1.5047,1.5123,1.518,1.5275,1.5312,1.5373,1.5363,1.5384,1.5389,1.5394,1.5396,1.5269,1.5386,1.5386,1.5385,1.5385,1.5385,0,1.4664,1.4699,1.4759,1.483,1.4882,1.4881,1.4938,1.4982,1.5048,1.5099,1.5156,1.5238,1.5306,1.5353,1.5422,1.5462,1.5466,1.5479,1.5476,1.5484,1.5402,1.5382,1.5474,1.5474,1.5474,1.5474,1.5474,1.5474,1.4726,1.4807,1.4827,1.4928,1.4963,1.5037,1.5069,1.5114,1.5155,1.5245,1.5301,1.5331,1.538,1.5453,1.5515,1.5528,1.5553,1.5565,1.5578,1.55,1.549,1.5481,1.5463,1.5571,1.5571,1.5655,1.5656,1.5657]},{"header":{"parameterUnit":"m.s-1","parameterCategory":1,"la1":30.2991,"la2":30.254,"lo1":-89.0895,"lo2":-89.0444,"dy":0.0017,"dx":0.0017,"nx":28,"ny":28,"refTime":"2023-05-28T21:00:00:Z","depth":0,"parameterNumber":3,"parameterNumberName":"V-component_of_WINDS"},"data":[0,0,0,0,0,0,0,0,0,0,0,0,0,0,0,0,0,0,0,0,0,0,0,0,0,0,0,0,0,0,0,0,0,0,0,0,0,0,0,0,0,0,0,0,0,0,0,0,0,0,0,0,0,0,0,0,0,0,2.1977,2.1977,0,2.1915,2.1914,2.1914,2.1829,2.1827,2.1826,2.1825,2.1761,2.176,2.176,0,0,0,0,0,0,0,0,0,0,0,0,0,2.2022,2.2022,2.1977,2.1977,2.1976,2.1915,2.1914,2.1914,2.1829,2.1827,2.1826,2.1824,2.1761,2.176,2.176,0,0,0,0,0,0,0,0,0,0,0,0,0,2.1986,2.2021,2.1978,2.1926,2.1921,2.1915,2.1914,2.1913,2.1829,2.1827,2.1825,2.1823,2.1761,2.176,2.176,2.1799,0,0,2.1758,2.1758,0,0,0,0,0,0,0,0,2.1988,2.1984,2.1935,2.193,2.1924,2.1878,2.1907,2.1875,2.183,2.1864,2.1825,2.1822,2.1801,2.1797,2.179,2.1796,2.1793,2.1758,2.1758,2.1757,2.1757,0,0,0,0,0,0,0,2.199,2.1986,2.1953,2.1934,2.1928,2.1906,2.1899,2.19,2.1846,2.1861,2.1855,2.1849,2.1798,2.1791,2.1788,2.1792,2.1758,2.1758,2.1757,2.1757,2.1826,2.1828,0,0,0,0,0,0,2.2001,2.1989,2.1955,2.1951,2.1951,2.1907,2.1899,2.1895,2.1845,2.1836,2.1851,2.1845,2.1793,2.1789,2.1786,2.1828,2.1757,2.1757,2.1757,2.1824,2.1827,2.1829,0,0,0,0,0,0,2.2002,2.1998,2.1957,2.1968,2.1961,2.1909,2.1905,2.1895,2.1888,2.1837,2.1827,2.1854,2.1791,2.1786,2.1796,2.1824,2.1757,2.1756,2.1821,2.1825,2.1828,2.1913,0,0,0,0,0,0,2.2003,2.1999,2.2014,2.1969,2.1961,2.197,2.1907,2.1895,2.1887,2.1879,2.1837,2.1828,2.1789,2.1797,2.1796,2.1822,2.1756,2.1819,2.1823,2.1827,2.1908,2.1919,2.1929,0,0,0,0,0,2.2005,2.2041,2.2015,2.2012,2.1978,2.1971,2.1967,2.1921,2.189,2.1904,2.1871,2.183,2.1822,2.1799,2.1796,2.1823,2.1817,2.1822,2.1826,2.1903,2.1917,2.1928,0,0,0,0,0,0,2.209,2.2034,2.2005,2.2027,2.2005,2.1957,2.1974,2.1937,2.1923,2.1916,2.186,2.1851,2.1868,2.1846,2.1822,2.1858,2.1813,2.1817,2.1872,2.1885,2.1895,2.19,2.1755,0,0,0,0,0,2.2112,2.2111,2.2061,2.2086,2.2076,2.2027,2.2022,2.1989,2.1963,2.1953,2.1921,2.1898,2.189,2.1886,2.1876,2.1904,2.1893,2.1921,2.1931,2.194,2.1945,2.1958,2.1969,2.1845,2.1845,2.1845,0,0,2.2156,2.2125,2.2128,2.2102,2.2081,2.2081,2.202,2.2022,2.2022,2.1954,2.1961,2.1937,2.1907,2.1926,2.1933,2.1909,2.1977,2.1947,2.1954,2.1954,2.1964,2.1976,2.1986,2.1848,2.1848,2.1847,0,0,2.2236,2.2213,2.223,2.221,2.2178,2.2145,2.215,2.2107,2.2089,2.2095,2.2044,2.2042,2.203,2.201,2.1999,2.2071,2.2032,2.2069,2.2124,2.2137,2.2147,2.2155,2.2181,2.2191,2.2074,2.2074,2.2074,0,2.2295,2.2293,2.2243,2.225,2.2239,2.2177,2.2194,2.2177,2.2144,2.2138,2.2111,2.2094,2.2069,2.2083,2.21,2.2093,2.2096,2.2074,2.2149,2.2157,2.2164,2.2188,2.2198,2.2079,2.2078,2.2078,2.2077,0,2.2367,2.2367,2.2384,2.2354,2.2346,2.2357,2.2309,2.2306,2.2273,2.2243,2.225,2.2218,2.22,2.2201,2.2168,2.2209,2.2195,2.216,2.2113,2.2182,2.2203,2.2212,2.2085,2.2084,2.2082,2.2081,0,0,2.25,2.2441,2.2449,2.2434,2.2394,2.2393,2.2401,2.2384,2.2382,2.2361,2.2367,2.2357,2.2324,2.2311,2.2276,2.2287,2.2346,2.225,2.2248,2.2269,2.2388,2.2415,2.2427,2.232,2.2321,2.2322,2.2391,0,2.2573,2.2584,2.2539,2.2562,2.2561,2.2501,2.2508,2.2484,2.2456,2.2451,2.2419,2.2413,2.237,2.2362,2.237,2.2337,2.2369,2.2331,2.2324,2.2324,2.2334,2.2438,2.2467,2.2533,2.2399,2.24,2.2401,0,2.266,2.2643,2.2666,2.2625,2.2622,2.263,2.261,2.2605,2.2577,2.2555,2.2541,2.25,2.2504,2.2459,2.2464,2.244,2.2433,2.2417,2.2418,2.2416,2.2367,2.2439,2.2553,2.2563,2.2414,2.2413,2.2412,0,2.2755,2.2738,2.2749,2.2739,2.2691,2.2697,2.2677,2.2646,2.2638,2.2621,2.2615,2.2598,2.2589,2.2576,2.2531,2.2503,2.2542,2.2493,2.2524,2.2525,2.2535,2.2535,2.265,2.2531,2.2531,2.253,2.253,0,2.2841,2.2857,2.2791,2.2799,2.2815,2.2762,2.278,2.2754,2.2727,2.2727,2.2674,2.2676,2.2617,2.2612,2.2577,2.2586,2.2582,2.2564,2.2555,2.257,2.2572,2.2565,2.256,2.2533,2.2532,2.2532,2.2531,0,2.295,2.2906,2.2915,2.2868,2.2857,2.2871,2.2831,2.2835,2.2803,2.2805,2.2802,2.2752,2.2743,2.2697,2.2677,2.2653,2.2675,2.2656,2.2685,2.2679,2.2712,2.271,2.2827,2.284,2.2713,2.2714,2.2715,0,2.3008,2.3019,2.2974,2.2971,2.2953,2.2949,2.294,2.2889,2.2882,2.285,2.2858,2.2845,2.2831,2.282,2.2781,2.2765,2.2746,2.2788,2.2743,2.2757,2.2746,2.2747,2.2747,2.2798,2.2799,2.2801,2.2802,0,2.3116,2.3094,2.3084,2.3067,2.3058,2.3042,2.3022,2.3023,2.2965,2.296,2.2951,2.294,2.292,2.2907,2.2885,2.2863,2.2823,2.2816,2.2822,2.2837,2.2854,2.2846,2.2711,2.2814,2.2813,2.2812,2.2811,2.2811,2.3201,2.3208,2.3177,2.3168,2.3148,2.3131,2.3133,2.3101,2.3092,2.3071,2.3041,2.3036,2.3005,2.2971,2.2953,2.2947,2.2924,2.2933,2.2936,2.2939,2.2946,2.2855,2.2943,2.2942,2.2942,2.2942,2.2941,0,2.3306,2.3284,2.3275,2.325,2.3243,2.3205,2.3181,2.3177,2.3173,2.3149,2.3137,2.3125,2.3112,2.3072,2.3055,2.3058,2.3039,2.3056,2.3055,2.3051,2.2968,2.2964,2.3071,2.3071,2.3071,2.3071,2.3071,2.3071,2.336,2.337,2.3345,2.3344,2.332,2.3314,2.3304,2.3288,2.3268,2.3258,2.3247,2.3221,2.319,2.317,2.3156,2.3145,2.3141,2.3163,2.3146,2.3069,2.3057,2.3045,2.3041,2.3163,2.3163,2.3229,2.323,2.3231]}]]